Temp     Hi    Low   Out    Dew  Wind  Wind   Wind    Hi    Hi   Wind   Heat    THW                Rain    Heat    Cool    In     In    In     In     In   In Air   Temp  Wind  Wind    ISS   Arc.
  Date    Time     Out   Temp   Temp   Hum    Pt. Speed   Dir    Run Speed   Dir  Chill  Index  Index   Bar    Rain  Rate    D-D     D-D    Temp   Hum    Dew   Heat    EMC Density    2nd  Samp   Tx   Recept  Int.
----------------------------------------------------------------------------------------------------------------------------------------------------------------------------------------------------------------------
20/10/17 12:10a   15.3   15.3   15.3    97   14.9   0.0   ---   0.00   0.0   ---   15.3   15.6   15.6  1017.0  0.00   0.0   0.021   0.000   23.6    49   12.2   23.4   9.05 1.1781    29.4   215    2     96.8   10 
20/10/17 12:20a   15.2   15.3   15.2    97   14.7   0.0   ---   0.00   0.0   ---   15.2   15.5   15.5  1016.6  0.00   0.0   0.022   0.000   23.6    49   12.2   23.4   9.05 1.1775    29.4   219    2     98.6   10 
20/10/17 12:30a   15.2   15.2   15.2    97   14.7   0.0     E   0.00   4.8    NE   15.2   15.4   15.4  1016.5  0.00   0.0   0.022   0.000   23.5    49   12.2   23.4   9.05 1.1777    29.4   214    2     96.4   10 
20/10/17 12:40a   15.1   15.2   15.1    97   14.6   0.0    NE   0.00   3.2    NE   15.1   15.3   15.3  1016.5  0.00   0.0   0.023   0.000   23.4    49   12.1   23.2   9.05 1.1783    29.4   164    2     73.9   10 
20/10/17 12:50a   15.1   15.2   15.1    97   14.6   0.0   ---   0.00   0.0   ---   15.1   15.3   15.3  1016.5  0.00   0.0   0.023   0.000   23.3    49   12.0   23.1   9.05 1.1788    29.4   206    2     92.8   10 
20/10/17  1:00a   15.1   15.1   15.1    98   14.7   0.0   ---   0.00   0.0   ---   15.1   15.3   15.3  1016.5  0.25   0.0   0.023   0.000   23.2    49   11.9   22.9   9.05 1.1793    29.4   202    2     91.0   10 
20/10/17  1:10a   15.2   15.2   15.1    98   14.9   0.0   ---   0.00   0.0   ---   15.2   15.4   15.4  1016.5  0.00   0.0   0.022   0.000   23.2    49   11.9   22.9   9.05 1.1793    29.4   218    2     98.2   10 
20/10/17  1:20a   15.2   15.2   15.2    98   14.9   0.0   ---   0.00   0.0   ---   15.2   15.5   15.5  1016.3  0.25   0.0   0.022   0.000   23.1    49   11.8   22.9   9.05 1.1793    29.4   178    2     80.2   10 
20/10/17  1:30a   15.2   15.2   15.2    98   14.9   0.0   ---   0.00   0.0   ---   15.2   15.5   15.5  1015.7  0.00   0.0   0.022   0.000   23.1    49   11.8   22.9   9.05 1.1787    29.4   217    2     97.7   10 
20/10/17  1:40a   15.2   15.2   15.2    98   14.9   0.0   ---   0.00   0.0   ---   15.2   15.5   15.5  1015.7  0.25   0.0   0.022   0.000   23.0    49   11.7   22.7   9.05 1.1793    29.4   218    2     98.2   10 
20/10/17  1:50a   15.2   15.2   15.2    98   14.9   0.0   ---   0.00   0.0   ---   15.2   15.4   15.4  1015.9  0.00   0.0   0.022   0.000   22.9    49   11.6   22.6   9.05 1.1800    29.4   150    2     67.6   10 
20/10/17  2:00a   15.2   15.2   15.2    98   14.9   0.0   ---   0.00   0.0   ---   15.2   15.4   15.4  1015.8  0.00   0.0   0.022   0.000   22.9    49   11.6   22.6   9.05 1.1799    29.4    93    2     41.9   10 
20/10/17  2:10a   15.2   15.2   15.2    99   15.0   0.0   ---   0.00   0.0   ---   15.2   15.4   15.4  1015.8  0.00   0.0   0.022   0.000   22.8    49   11.6   22.5   9.05 1.1802    29.4   213    2     95.9   10 
20/10/17  2:20a   15.2   15.2   15.2    99   15.0   0.0   ---   0.00   0.0   ---   15.2   15.4   15.4  1015.7  0.25   0.0   0.022   0.000   22.8    49   11.6   22.5   9.05 1.1800    29.4   220    2     99.1   10 
20/10/17  2:30a   15.1   15.2   15.1    99   14.9   0.0   ---   0.00   0.0   ---   15.1   15.3   15.3  1015.4  0.25   0.0   0.023   0.000   22.7    49   11.5   22.4   9.05 1.1802    29.4   217    2     97.7   10 
20/10/17  2:40a   15.0   15.1   15.0    99   14.8   0.0   ---   0.00   0.0   ---   15.0   15.3   15.3  1015.4  0.00   0.0   0.023   0.000   22.7    49   11.5   22.4   9.05 1.1802    29.4   216    2     97.3   10 
20/10/17  2:50a   14.9   15.0   14.9    99   14.7   0.0   ---   0.00   0.0   ---   14.9   15.2   15.2  1014.9  0.00   0.0   0.024   0.000   22.6    49   11.4   22.2   9.05 1.1802    29.4   111    2     50.0   10 
20/10/17  3:00a   14.8   14.9   14.8    99   14.7   0.0    NE   0.00   4.8    NE   14.8   15.1   15.1  1014.7  0.00   0.0   0.024   0.000   22.5    49   11.2   22.1   9.05 1.1806    29.4   114    2     51.4   10 
20/10/17  3:10a   14.8   14.8   14.8    99   14.7   0.0   ---   0.00   0.0   ---   14.8   15.1   15.1  1014.7  0.25   0.0   0.024   0.000   22.5    49   11.2   22.1   9.05 1.1806    29.4   186    2     83.8   10 
20/10/17  3:20a   14.7   14.8   14.7    99   14.6   0.0   ---   0.00   0.0   ---   14.7   14.9   14.9  1015.1  0.00   0.0   0.025   0.000   22.4    49   11.2   22.0   9.05 1.1813    29.4    54    2     24.3   10 
20/10/17  3:30a   14.7   14.7   14.7    99   14.6   0.0   ---   0.00   0.0   ---   14.7   14.9   14.9  1015.4  0.00   0.0   0.025   0.000   22.5    49   11.2   22.1   9.05 1.1813    29.4    39    2     17.6   10 
20/10/17  3:40a   14.7   14.7   14.7    99   14.5   0.0   ---   0.00   0.0   ---   14.7   14.9   14.9  1015.4  0.00   0.0   0.025   0.000   22.4    49   11.2   22.0   9.05 1.1816    29.4    59    2     26.6   10 
20/10/17  3:50a   14.7   14.7   14.7    99   14.5   0.0   ---   0.00   0.0   ---   14.7   14.9   14.9  1015.5  0.00   0.0   0.025   0.000   22.5    49   11.2   22.1   9.05 1.1815    29.4     0    2      0.0   10 
20/10/17  4:00a   14.7   14.7   14.7    99   14.5   0.0   ---   0.00   0.0   ---   14.7   14.9   14.9  1015.5  0.00   0.0   0.025   0.000   22.4    49   11.2   22.0   9.05 1.1817    29.4     0    2      0.0   10 
20/10/17  4:10a   14.7   14.7   14.7   100   14.7   0.0   ---   0.00   0.0   ---   14.7   14.9   14.9  1015.5  0.00   0.0   0.025   0.000   22.3    49   11.1   21.8   9.05 1.1823    29.4     0    2      0.0   10 
20/10/17  4:20a   14.6   14.7   14.6   100   14.6   0.0   ---   0.00   0.0   ---   14.6   14.8   14.8  1015.7  0.00   0.0   0.026   0.000   22.2    49   11.0   21.7   9.05 1.1831    29.4     0    2      0.0   10 
20/10/17  4:30a   14.7   14.7   14.6   100   14.7   0.0   ---   0.00   0.0   ---   14.7   14.9   14.9  1015.4  0.00   0.0   0.025   0.000   22.2    49   10.9   21.6   9.05 1.1831    29.4     0    2      0.0   10 
20/10/17  4:40a   14.6   14.7   14.6   100   14.6   0.0   ---   0.00   0.0   ---   14.6   14.8   14.8  1015.4  0.00   0.0   0.026   0.000   22.2    49   10.9   21.6   9.05 1.1831    29.4     0    2      0.0   10 
20/10/17  4:50a   14.6   14.7   14.6   100   14.6   0.0   ---   0.00   0.0   ---   14.6   14.8   14.8  1015.3  0.00   0.0   0.026   0.000   22.2    49   10.9   21.6   9.05 1.1829    29.4     0    2      0.0   10 
20/10/17  5:00a   14.6   14.7   14.6   100   14.6   0.0   ---   0.00   0.0   ---   14.6   14.8   14.8  1014.9  0.00   0.0   0.026   0.000   22.1    49   10.8   21.4   9.05 1.1830    29.4     0    2      0.0   10 
20/10/17  5:10a   14.6   14.7   14.6   100   14.6   0.0   ---   0.00   0.0   ---   14.6   14.8   14.8  1014.9  0.00   0.0   0.026   0.000   22.1    49   10.8   21.4   9.05 1.1830    29.4    28    2     12.6   10 
20/10/17  5:20a   14.5   14.6   14.5   100   14.5   0.0   ---   0.00   0.0   ---   14.5   14.7   14.7  1015.1  0.00   0.0   0.027   0.000   22.1    49   10.8   21.4   9.05 1.1832    29.4    41    2     18.5   10 
20/10/17  5:30a   14.4   14.5   14.4   100   14.4   0.0   ---   0.00   0.0   ---   14.4   14.6   14.6  1015.1  0.00   0.0   0.027   0.000   22.1    49   10.8   21.4   9.05 1.1832    29.4     0    2      0.0   10 
20/10/17  5:40a   14.4   14.5   14.4   100   14.4   0.0   ---   0.00   0.0   ---   14.4   14.6   14.6  1015.1  0.00   0.0   0.027   0.000   21.9    49   10.7   21.3   9.05 1.1837    29.4     0    2      0.0   10 
20/10/17  5:50a   14.3   14.4   14.3   100   14.3   0.0   ---   0.00   0.0   ---   14.3   14.5   14.5  1015.5  0.00   0.0   0.028   0.000   22.1    49   10.8   21.4   9.05 1.1837    29.4    40    2     18.0   10 
20/10/17  6:00a   14.3   14.3   14.3   100   14.3   0.0   ---   0.00   0.0   ---   14.3   14.5   14.5  1015.8  0.00   0.0   0.028   0.000   22.2    49   10.9   21.6   9.05 1.1835    29.4   104    2     46.8   10 
20/10/17  6:10a   14.3   14.3   14.3   100   14.3   0.0   ---   0.00   0.0   ---   14.3   14.5   14.5  1015.8  0.00   0.0   0.028   0.000   22.2    49   10.9   21.6   9.05 1.1835    29.4     0    2      0.0   10 
20/10/17  6:20a   14.2   14.3   14.2   100   14.2   0.0   ---   0.00   0.0   ---   14.2   14.4   14.4  1016.2  0.00   0.0   0.029   0.000   22.1    49   10.8   21.4   9.05 1.1845    29.4     0    2      0.0   10 
20/10/17  6:30a   14.2   14.3   14.2   100   14.2   0.0   ---   0.00   0.0   ---   14.2   14.4   14.4  1016.2  0.00   0.0   0.029   0.000   21.9    49   10.7   21.3   9.05 1.1850    29.4     5    2      2.3   10 
20/10/17  6:40a   14.2   14.3   14.2   100   14.2   0.0   ---   0.00   0.0   ---   14.2   14.4   14.4  1016.2  0.00   0.0   0.029   0.000   21.8    49   10.6   21.1   9.05 1.1856    29.4    78    2     35.1   10 
20/10/17  6:50a   14.2   14.2   14.2   100   14.2   0.0   ---   0.00   0.0   ---   14.2   14.4   14.4  1016.4  0.00   0.0   0.029   0.000   21.8    49   10.6   21.1   9.05 1.1859    29.4    72    2     32.4   10 
20/10/17  7:00a   14.3   14.3   14.2   100   14.3   0.0   ---   0.00   0.0   ---   14.3   14.5   14.5  1016.5  0.00   0.0   0.028   0.000   21.8    49   10.6   21.0   9.05 1.1862    29.4    94    2     42.3   10 
20/10/17  7:10a   14.4   14.4   14.3   100   14.4   0.0   ---   0.00   0.0   ---   14.4   14.6   14.6  1016.5  0.00   0.0   0.027   0.000   21.8    49   10.6   21.0   9.05 1.1862    29.4    30    2     13.5   10 
20/10/17  7:20a   14.5   14.5   14.4   100   14.5   0.0   ---   0.00   0.0   ---   14.5   14.7   14.7  1016.9  0.00   0.0   0.027   0.000   21.8    49   10.6   21.0   9.05 1.1867    29.4     0    2      0.0   10 
20/10/17  7:30a   14.6   14.6   14.5   100   14.6   0.0   ---   0.00   0.0   ---   14.6   14.8   14.8  1016.8  0.00   0.0   0.026   0.000   21.7    49   10.5   20.8   9.05 1.1871    29.4     0    2      0.0   10 
20/10/17  7:40a   14.7   14.7   14.6   100   14.7   0.0   ---   0.00   0.0   ---   14.7   14.9   14.9  1016.8  0.00   0.0   0.025   0.000   21.7    49   10.5   20.8   9.05 1.1871    29.4     0    2      0.0   10 
20/10/17  7:50a   14.9   14.9   14.7   100   14.9   0.0   ---   0.00   0.0   ---   14.9   15.2   15.2  1017.0  0.00   0.0   0.024   0.000   21.6    49   10.4   20.7   9.05 1.1879    29.4     0    2      0.0   10 
20/10/17  8:00a   15.1   15.1   14.9   100   15.1   0.0   ---   0.00   0.0   ---   15.1   15.3   15.3  1017.0  0.00   0.0   0.023   0.000   21.6    49   10.4   20.7   9.05 1.1879    29.4     0    2      0.0   10 
20/10/17  8:10a   15.1   15.2   15.1   100   15.1   0.0   ---   0.00   0.0   ---   15.1   15.3   15.3  1017.0  0.00   0.0   0.023   0.000   21.5    49   10.3   20.6   9.05 1.1882    29.4    49    2     22.1   10 
20/10/17  8:20a   15.2   15.2   15.1   100   15.2   0.0   ---   0.00   0.0   ---   15.2   15.5   15.5  1017.1  0.00   0.0   0.022   0.000   21.6    49   10.4   20.7   9.05 1.1880    29.4   140    2     63.1   10 
20/10/17  8:30a   15.3   15.3   15.2   100   15.3   0.0   ---   0.00   0.0   ---   15.3   15.7   15.7  1016.9  0.00   0.0   0.021   0.000   21.5    49   10.3   20.6   9.05 1.1880    29.4   211    2     95.0   10 
20/10/17  8:40a   15.5   15.5   15.3   100   15.5   0.0   ---   0.00   0.0   ---   15.5   15.8   15.8  1016.9  0.00   0.0   0.020   0.000   21.6    49   10.4   20.7   9.05 1.1878    29.4   212    2     95.5   10 
20/10/17  8:50a   15.6   15.6   15.5   100   15.6   0.0   ---   0.00   0.0   ---   15.6   15.9   15.9  1016.9  0.00   0.0   0.019   0.000   21.6    49   10.4   20.7   9.05 1.1878    29.4   216    2     97.3   10 
20/10/17  9:00a   15.7   15.7   15.6   100   15.7   0.0   ---   0.00   0.0   ---   15.7   16.0   16.0  1017.0  0.00   0.0   0.019   0.000   21.6    49   10.4   20.7   9.05 1.1879    29.4   217    2     97.7   10 
20/10/17  9:10a   15.7   15.8   15.7   100   15.7   0.0   ---   0.00   0.0   ---   15.7   16.1   16.1  1017.0  0.00   0.0   0.018   0.000   21.6    49   10.4   20.7   9.05 1.1879    29.4   220    2     99.1   10 
20/10/17  9:20a   15.8   15.8   15.7   100   15.8   0.0   ---   0.00   0.0   ---   15.8   16.2   16.2  1016.9  0.00   0.0   0.017   0.000   21.7    49   10.5   20.8   9.05 1.1873    29.4   219    2     98.6   10 
20/10/17  9:30a   15.9   15.9   15.8   100   15.9   0.0   ---   0.00   0.0   ---   15.9   16.3   16.3  1017.1  0.00   0.0   0.017   0.000   21.8    49   10.6   21.0   9.05 1.1869    29.4   146    2     65.8   10 
20/10/17  9:40a   15.8   16.0   15.8   100   15.8   0.0   ---   0.00   0.0   ---   15.8   16.2   16.2  1017.1  0.00   0.0   0.017   0.000   21.8    49   10.6   21.0   9.05 1.1869    29.4    60    2     27.0   10 
20/10/17  9:50a   16.1   16.1   15.8   100   16.1   0.0   ---   0.00   0.0   ---   16.1   16.5   16.5  1017.4  0.00   0.0   0.015   0.000   21.8    49   10.6   21.0   9.05 1.1873    29.4   155    2     69.8   10 
20/10/17 10:00a   16.3   16.3   16.1   100   16.3   0.0   ---   0.00   0.0   ---   16.3   16.7   16.7  1017.4  0.00   0.0   0.014   0.000   21.8    49   10.6   21.1   9.05 1.1870    29.4   158    2     71.2   10 
20/10/17 10:10a   16.4   16.4   16.3   100   16.4   0.0   ---   0.00   0.0   ---   16.4   16.9   16.9  1017.4  0.00   0.0   0.013   0.000   21.8    48   10.3   21.1   8.88 1.1873    29.4   215    2     96.8   10 
20/10/17 10:20a   16.6   16.6   16.3   100   16.6   0.0   ---   0.00   0.0   ---   16.6   17.1   17.1  1017.3  0.00   0.0   0.012   0.000   21.9    48   10.4   21.2   8.88 1.1867    29.4   216    2     97.3   10 
20/10/17 10:30a   16.7   16.7   16.6   100   16.7   0.0   ---   0.00   0.0   ---   16.7   17.2   17.2  1017.2  0.00   0.0   0.011   0.000   21.9    48   10.4   21.2   8.88 1.1866    29.4   216    2     97.3   10 
20/10/17 10:40a   17.5   17.5   16.7   100   17.5   0.0    NE   0.00   1.6    NE   17.5   18.1   18.1  1017.2  0.00   0.0   0.006   0.000   22.2    48   10.6   21.6   8.89 1.1855    29.4   217    2     97.7   10 
20/10/17 10:50a   18.0   18.0   17.5   100   18.0   0.0    NE   0.00   3.2    NE   18.0   18.7   18.7  1016.9  0.00   0.0   0.002   0.000   22.4    47   10.6   21.9   8.75 1.1840    29.4   219    2     98.6   10 
20/10/17 11:00a   18.4   18.4   18.0   100   18.4   0.0    NE   0.00   4.8    NE   18.4   19.1   19.1  1016.7  0.00   0.0   0.000   0.000   22.5    48   10.9   22.0   8.90 1.1833    29.4   217    2     97.7   10 
20/10/17 11:10a   18.7   18.7   18.4   100   18.7   0.0    NE   0.00   3.2    NE   18.7   19.5   19.5  1016.7  0.00   0.0   0.000   0.003   22.7    47   10.8   22.3   8.75 1.1825    29.4   216    2     97.3   10 
20/10/17 11:20a   19.1   19.1   18.7    97   18.6   0.0    NE   0.00   4.8    NE   19.1   19.9   19.9  1016.6  0.00   0.0   0.000   0.005   22.8    47   10.9   22.4   8.75 1.1818    29.4   217    2     97.7   10 
20/10/17 11:30a   19.2   19.4   19.1    90   17.5   0.0    NE   0.00   1.6    NE   19.2   19.9   19.9  1016.5  0.00   0.0   0.000   0.006   22.9    47   11.0   22.5   8.75 1.1814    29.4   216    2     97.3   10 
20/10/17 11:40a   19.2   19.3   19.2    83   16.2   0.0   ---   0.00   0.0   ---   19.2   19.8   19.8  1016.5  0.00   0.0   0.000   0.006   22.9    47   11.0   22.5   8.75 1.1814    29.4   216    2     97.3   10 
20/10/17 11:50a   19.3   19.3   19.2    81   15.9   0.0   ---   0.00   0.0   ---   19.3   19.9   19.9  1016.4  0.00   0.0   0.000   0.007   22.9    47   11.0   22.5   8.75 1.1813    29.4   214    2     96.4   10 
20/10/17 12:00p   19.4   19.4   19.3    79   15.7   0.0   ---   0.00   0.0   ---   19.4   19.9   19.9  1016.1  0.00   0.0   0.000   0.007   22.9    47   11.0   22.5   8.75 1.1809    29.4   212    2     95.5   10 
20/10/17 12:10p   19.7   19.7   19.4    80   16.2   0.0    NE   0.00   1.6    NE   19.7   20.4   20.4  1016.1  0.00   0.0   0.000   0.010   22.9    47   11.0   22.5   8.75 1.1809    29.4   214    2     96.4   10 
20/10/17 12:20p   20.5   20.5   19.8    76   16.1   0.0   ---   0.00   0.0   ---   20.5   21.1   21.1  1015.9  0.00   0.0   0.000   0.015   23.1    47   11.2   22.8   8.75 1.1796    29.4   217    2     97.7   10 
20/10/17 12:30p   20.5   20.5   20.4    73   15.5   0.0   ---   0.00   0.0   ---   20.5   20.9   20.9  1015.7  0.00   0.0   0.000   0.015   23.2    47   11.2   22.8   8.75 1.1791    29.4   218    2     98.2   10 
20/10/17 12:40p   20.1   20.5   20.0    75   15.5   0.0    NE   0.00   1.6    NE   20.1   20.6   20.6  1015.7  0.00   0.0   0.000   0.012   23.2    47   11.2   22.8   8.75 1.1791    29.4   213    2     95.9   10 
20/10/17 12:50p   19.8   20.2   19.8    75   15.3   0.0    NE   0.00   8.0    NE   19.8   20.3   20.3  1015.8  0.00   0.0   0.000   0.010   23.2    47   11.2   22.8   8.75 1.1791    29.4   215    2     96.8   10 
20/10/17  1:00p   19.4   19.8   19.4    77   15.3   0.0    NE   0.00   1.6    NE   19.4   19.9   19.9  1015.7  0.00   0.0   0.000   0.008   23.2    47   11.2   22.8   8.75 1.1791    29.4   218    2     98.2   10 
20/10/17  1:10p   19.4   19.4   19.4    77   15.3   0.0    NE   0.00  16.1   NNE   19.4   19.9   19.9  1015.7  0.00   0.0   0.000   0.008   23.3    48   11.6   23.1   8.93 1.1782    29.4   219    2     98.6   10 
20/10/17  1:20p   19.4   19.4   19.4    77   15.3   1.6    NE   0.27  16.1   NNE   19.4   19.9   19.9  1015.7  0.00   0.0   0.000   0.008   23.3    47   11.3   23.0   8.75 1.1785    29.4   218    2     98.2   10 
20/10/17  1:30p   19.4   19.6   19.4    76   15.1   0.0    NE   0.00   6.4    NE   19.4   19.9   19.9  1015.6  0.00   0.0   0.000   0.008   23.3    48   11.6   23.1   8.93 1.1781    29.4   216    2     97.3   10 
20/10/17  1:40p   19.7   19.7   19.4    77   15.6   1.6   NNE   0.27  12.9   NNE   19.7   20.3   20.3  1015.6  0.00   0.0   0.000   0.010   23.4    48   11.8   23.2   8.93 1.1775    29.4   217    2     97.7   10 
20/10/17  1:50p   19.9   20.1   19.7    73   15.0   1.6   NNE   0.27  12.9   NNE   19.9   20.4   20.4  1015.5  0.00   0.0   0.000   0.011   23.5    48   11.9   23.3   8.94 1.1769    29.4   213    2     95.9   10 
20/10/17  2:00p   19.7   19.9   19.7    73   14.7   1.6   ENE   0.27   9.7   NNE   19.7   20.1   20.1  1015.6  0.00   0.0   0.000   0.009   23.6    48   11.9   23.4   8.94 1.1768    29.4   215    2     96.8   10 
20/10/17  2:10p   18.9   19.7   18.9    74   14.2   1.6   NNE   0.27  11.3   NNE   18.9   19.2   19.2  1015.6  0.00   0.0   0.000   0.004   23.6    47   11.6   23.4   8.75 1.1771    29.4   220    2     99.1   10 
20/10/17  2:20p   18.0   18.9   18.0    76   13.7   3.2   NNE   0.54  12.9    NE   18.0   18.2   18.2  1015.8  0.00   0.0   0.002   0.000   23.6    48   11.9   23.4   8.94 1.1769    29.4   218    2     98.2   10 
20/10/17  2:30p   17.4   17.9   17.4    78   13.5   1.6   NNE   0.27  11.3     N   17.4   17.5   17.5  1015.9  0.00   0.0   0.007   0.000   23.5    48   11.9   23.3   8.94 1.1773    29.4   215    2     96.8   10 
20/10/17  2:40p   16.6   17.4   16.6    78   12.8   3.2   ESE   0.54  12.9   ESE   16.6   16.6   16.6  1015.9  0.00   0.0   0.012   0.000   23.3    48   11.6   23.1   8.93 1.1784    29.4   221    2     99.5   10 
20/10/17  2:50p   16.1   16.6   16.1    79   12.5   1.6   ENE   0.27  16.1   ESE   16.1   16.1   16.1  1016.6  0.00   0.0   0.015   0.000   23.2    48   11.5   22.9   8.92 1.1798    29.4   217    2     97.7   10 
20/10/17  3:00p   15.8   16.1   15.8    80   12.4   3.2     E   0.54  17.7   ESE   15.8   15.8   15.8  1016.4  0.00   0.0   0.017   0.000   23.1    48   11.5   22.8   8.92 1.1798    29.4   214    2     96.4   10 
20/10/17  3:10p   16.0   16.0   15.8    78   12.2   1.6   ENE   0.27  16.1   ESE   16.0   15.9   15.9  1016.4  0.00   0.0   0.016   0.000   23.3    48   11.6   23.1   8.93 1.1790    29.4   218    2     98.2   10 
20/10/17  3:20p   15.4   16.0   15.4    77   11.4   3.2     E   0.54  17.7   ESE   15.4   15.2   15.2  1016.7  0.00   0.0   0.020   0.000   23.2    47   11.2   22.8   8.75 1.1803    29.4   218    2     98.2   10 
20/10/17  3:30p   15.2   15.4   15.2    79   11.5   1.6   ENE   0.27  12.9   ENE   15.2   15.1   15.1  1016.9  0.00   0.0   0.022   0.000   22.9    48   11.3   22.6   8.91 1.1815    29.4   218    2     98.2   10 
20/10/17  3:40p   14.9   15.2   14.9    79   11.3   3.2   ESE   0.54  16.1   ESE   14.9   14.7   14.7  1016.9  0.00   0.0   0.024   0.000   22.8    48   11.2   22.5   8.91 1.1818    29.4   216    2     97.3   10 
20/10/17  3:50p   14.6   14.9   14.6    79   11.0   4.8     E   0.80  12.9     E   14.6   14.4   14.4  1016.8  0.00   0.0   0.026   0.000   22.7    48   11.1   22.3   8.91 1.1822    29.4   215    2     96.8   10 
20/10/17  4:00p   14.2   14.6   14.2    80   10.8   4.8    SE   0.80  17.7    SE   14.2   14.1   14.1  1016.9  0.00   0.0   0.029   0.000   22.6    48   11.0   22.2   8.90 1.1829    29.4   218    2     98.2   10 
20/10/17  4:10p   14.1   14.2   14.1    80   10.7   1.6   ESE   0.27  12.9    SE   14.1   13.9   13.9  1016.9  0.00   0.0   0.030   0.000   22.6    48   11.0   22.2   8.90 1.1829    29.4   214    2     96.4   10 
20/10/17  4:20p   13.8   14.1   13.8    81   10.6   1.6   ESE   0.27  16.1   ESE   13.8   13.6   13.6  1017.5  0.00   0.0   0.032   0.000   22.4    48   10.9   21.9   8.90 1.1844    29.4   216    2     97.3   10 
20/10/17  4:30p   13.7   13.8   13.7    81   10.5   1.6    SE   0.27  16.1    SE   13.7   13.5   13.5  1017.9  0.00   0.0   0.032   0.000   22.3    47   10.5   21.7   8.75 1.1858    29.4   217    2     97.7   10 
20/10/17  4:40p   13.4   13.7   13.4    81   10.2   1.6     E   0.27  17.7    SE   13.4   13.2   13.2  1017.9  0.00   0.0   0.034   0.000   22.2    48   10.7   21.6   8.89 1.1860    29.4   216    2     97.3   10 
20/10/17  4:50p   13.4   13.4   13.3    83   10.6   0.0   ESE   0.00   9.7   ESE   13.4   13.3   13.3  1018.2  0.00   0.0   0.034   0.000   22.2    48   10.7   21.6   8.89 1.1863    29.4   216    2     97.3   10 
20/10/17  5:00p   13.1   13.4   13.1    84   10.4   1.6   ESE   0.27  12.9    SE   13.1   13.0   13.0  1018.2  0.00   0.0   0.037   0.000   22.2    48   10.6   21.6   8.89 1.1867    29.4   222    2    100.0   10 
20/10/17  5:10p   12.9   13.1   12.9    86   10.6   1.6    SE   0.27  12.9     E   12.9   12.8   12.8  1018.2  0.00   0.0   0.038   0.000   22.1    47   10.2   21.3   8.75 1.1875    29.4   217    2     97.7   10 
20/10/17  5:20p   12.5   12.8   12.5    87   10.4   1.6   ESE   0.27  11.3    SE   12.5   12.5   12.5  1018.7  0.00   0.0   0.041   0.000   22.1    48   10.5   21.3   8.88 1.1878    29.4   219    2     98.6   10 
20/10/17  5:30p   12.3   12.5   12.3    89   10.6   0.0    SE   0.00   8.0    SE   12.3   12.4   12.4  1018.9  0.00   0.0   0.042   0.000   21.9    48   10.4   21.2   8.88 1.1885    29.4   220    2     99.1   10 
20/10/17  5:40p   12.1   12.3   12.1    89   10.3   0.0   ESE   0.00   9.7   ESE   12.1   12.1   12.1  1018.9  0.00   0.0   0.044   0.000   21.8    48   10.3   21.1   8.88 1.1891    29.4   218    2     98.2   10 
20/10/17  5:50p   11.9   12.1   11.9    90   10.3   1.6   ESE   0.27   9.7   ESE   11.9   11.9   11.9  1019.0  0.00   0.0   0.045   0.000   21.8    48   10.3   20.9   8.87 1.1895    29.4   216    2     97.3   10 
20/10/17  6:00p   11.9   11.9   11.8    91   10.5   0.0   ESE   0.00   3.2   ESE   11.9   11.9   11.9  1019.3  0.00   0.0   0.045   0.000   21.7    48   10.2   20.8   8.87 1.1904    29.4   215    2     96.8   10 
20/10/17  6:10p   11.8   11.9   11.8    92   10.5   0.0   ESE   0.00  11.3     E   11.8   11.9   11.9  1019.3  0.00   0.0   0.046   0.000   21.6    48   10.1   20.6   8.87 1.1910    29.4   212    2     95.5   10 
20/10/17  6:20p   11.7   11.8   11.7    92   10.4   0.0   ESE   0.00   9.7   ESE   11.7   11.8   11.8  1019.6  0.00   0.0   0.046   0.000   21.5    48   10.0   20.6   8.86 1.1916    29.4   216    2     97.3   10 
20/10/17  6:30p   11.6   11.7   11.6    93   10.5   0.0   ESE   0.00   4.8   ESE   11.6   11.7   11.7  1019.7  0.00   0.0   0.047   0.000   21.5    48   10.0   20.6   8.86 1.1917    29.4   217    2     97.7   10 
20/10/17  6:40p   11.8   11.8   11.6    94   10.8   0.0    SE   0.00   8.0    SE   11.8   11.9   11.9  1019.7  0.00   0.0   0.046   0.000   21.3    48    9.8   20.3   8.86 1.1928    29.4   215    2     96.8   10 
20/10/17  6:50p   11.6   11.8   11.6    94   10.7   0.0    SE   0.00   4.8    SE   11.6   11.8   11.8  1019.9  0.25   0.0   0.047   0.000   21.3    48    9.8   20.3   8.86 1.1930    29.4   215    2     96.8   10 
20/10/17  7:00p   11.5   11.6   11.5    94   10.6   0.0   ESE   0.00   6.4   ESE   11.5   11.7   11.7  1020.2  0.00   0.0   0.047   0.000   21.2    48    9.8   20.2   8.85 1.1936    29.4   215    2     96.8   10 
20/10/17  7:10p   11.4   11.5   11.4    94   10.5   0.0   ESE   0.00   9.7   ESE   11.4   11.6   11.6  1020.2  0.00   0.0   0.048   0.000   21.1    48    9.7   20.1   8.85 1.1941    29.4   219    2     98.6   10 
20/10/17  7:20p   11.6   11.6   11.4    94   10.7   0.0   ESE   0.00   3.2   ESE   11.6   11.8   11.8  1020.2  0.00   0.0   0.047   0.000   21.1    48    9.7   20.1   8.85 1.1941    29.4   219    2     98.6   10 
20/10/17  7:30p   11.5   11.6   11.5    94   10.6   0.0   ---   0.00   0.0   ---   11.5   11.7   11.7  1020.3  0.00   0.0   0.047   0.000   21.0    48    9.6   20.0   8.85 1.1949    29.4   214    2     96.4   10 
20/10/17  7:40p   11.4   11.5   11.4    94   10.5   0.0   ESE   0.00   1.6   ESE   11.4   11.6   11.6  1020.3  0.00   0.0   0.048   0.000   21.0    48    9.6   20.0   8.85 1.1949    29.4   220    2     99.1   10 
20/10/17  7:50p   11.3   11.4   11.3    94   10.4   0.0   ESE   0.00   3.2   ESE   11.3   11.5   11.5  1020.7  0.00   0.0   0.049   0.000   20.9    48    9.5   19.9   8.86 1.1957    29.4   221    2     99.5   10 
20/10/17  8:00p   11.3   11.3   11.3    94   10.3   0.0   ESE   0.00   9.7   ESE   11.3   11.4   11.4  1021.0  0.00   0.0   0.049   0.000   20.8    48    9.4   19.9   8.86 1.1965    29.4   216    2     97.3   10 
20/10/17  8:10p   11.3   11.3   11.3    93   10.2   0.0   ESE   0.00   4.8   ESE   11.3   11.4   11.4  1021.0  0.00   0.0   0.049   0.000   20.8    48    9.4   19.9   8.86 1.1965    29.4   215    2     96.8   10 
20/10/17  8:20p   11.3   11.3   11.3    93   10.2   0.0   ---   0.00   0.0   ---   11.3   11.4   11.4  1021.0  0.00   0.0   0.049   0.000   20.7    49    9.6   19.8   9.06 1.1968    29.4   215    2     96.8   10 
20/10/17  8:30p   11.3   11.3   11.3    93   10.2   0.0   ESE   0.00   4.8   ESE   11.3   11.4   11.4  1021.2  0.00   0.0   0.049   0.000   20.7    49    9.6   19.8   9.06 1.1970    29.4   219    2     98.6   10 
20/10/17  8:40p   11.3   11.3   11.3    92   10.0   0.0   ---   0.00   0.0   ---   11.3   11.4   11.4  1021.2  0.00   0.0   0.049   0.000   20.6    49    9.5   19.8   9.07 1.1975    29.4   217    2     97.7   10 
20/10/17  8:50p   11.3   11.3   11.3    92   10.1   0.0   ---   0.00   0.0   ---   11.3   11.4   11.4  1021.3  0.00   0.0   0.049   0.000   20.6    48    9.2   19.7   8.87 1.1979    29.4   217    2     97.7   10 
20/10/17  9:00p   11.0   11.3   11.0    86    8.7   4.8    SE   0.80  17.7    SE   10.9   11.0   10.9  1021.6  0.00   0.0   0.051   0.000   20.6    48    9.2   19.7   8.87 1.1986    29.4   218    2     98.2   10 
20/10/17  9:10p   11.0   11.0   10.9    81    7.9   4.8   SSE   0.80  17.7     S   10.9   10.9   10.9  1021.6  0.00   0.0   0.051   0.000   20.4    48    9.1   19.6   8.87 1.1992    29.4   217    2     97.7   10 
20/10/17  9:20p   11.2   11.2   11.0    78    7.5   6.4     S   1.07  16.1     S   10.7   11.0   10.6  1021.7  0.00   0.0   0.050   0.000   20.3    48    9.0   19.4   8.88 1.1999    29.4   217    2     97.7   10 
20/10/17  9:30p   11.2   11.2   11.1    76    7.1   8.0     S   1.34  19.3   SSE   10.4   10.9   10.2  1021.7  0.00   0.0   0.050   0.000   20.3    48    8.9   19.4   8.88 1.2001    29.4   216    2     97.3   10 
20/10/17  9:40p   11.3   11.3   11.2    74    6.8   8.0   SSE   1.34  20.9     S   10.5   11.0   10.2  1021.7  0.00   0.0   0.049   0.000   20.3    48    8.9   19.4   8.88 1.2001    29.4   217    2     97.7   10 
20/10/17  9:50p   11.3   11.3   11.3    73    6.6   6.4     S   1.07  19.3   SSE   10.8   11.0   10.6  1021.7  0.00   0.0   0.049   0.000   20.2    48    8.8   19.3   8.88 1.2006    29.4   218    2     98.2   10 
20/10/17 10:00p   11.3   11.3   11.3    72    6.5   4.8   SSE   0.80  11.3   SSE   11.3   11.0   10.9  1021.7  0.00   0.0   0.049   0.000   20.0    47    8.3   19.1   8.79 1.2018    29.4   217    2     97.7   10 
20/10/17 10:10p   11.3   11.3   11.3    71    6.3   3.2   SSE   0.54  12.9   SSE   11.3   11.0   11.0  1021.7  0.00   0.0   0.049   0.000   20.0    47    8.3   19.1   8.79 1.2018    29.4   208    2     93.7   10 
20/10/17 10:20p   11.3   11.3   11.3    70    6.1   6.4   SSE   1.07  16.1     S   10.9   11.0   10.6  1021.4  0.00   0.0   0.049   0.000   19.9    47    8.2   19.0   8.79 1.2020    29.4   216    2     97.3   10 
20/10/17 10:30p   11.4   11.4   11.3    69    6.0   4.8    SE   0.80  16.1   SSE   11.4   11.1   11.1  1021.3  0.00   0.0   0.048   0.000   19.8    47    8.1   18.9   8.80 1.2024    29.4   216    2     97.3   10 
20/10/17 10:40p   11.3   11.4   11.3    70    6.1   1.6    SE   0.27   9.7    SE   11.3   11.0   11.0  1021.3  0.00   0.0   0.049   0.000   19.7    47    8.1   18.8   8.80 1.2027    29.4   212    2     95.5   10 
20/10/17 10:50p   11.3   11.3   11.3    70    6.1   1.6   SSE   0.27  12.9   SSE   11.3   11.0   11.0  1021.4  0.00   0.0   0.049   0.000   19.7    47    8.1   18.8   8.80 1.2027    29.4   216    2     97.3   10 
20/10/17 11:00p   11.3   11.3   11.3    71    6.3   1.6   SSE   0.27  11.3   SSE   11.3   11.0   11.0  1021.2  0.00   0.0   0.049   0.000   19.6    47    8.0   18.7   8.80 1.2030    29.4   212    2     95.5   10 
20/10/17 11:10p   11.3   11.3   11.3    69    5.8   1.6   SSE   0.27   9.7   SSE   11.3   10.9   10.9  1021.2  0.00   0.0   0.049   0.000   19.5    47    7.9   18.6   8.81 1.2036    29.4   218    2     98.2   10 
20/10/17 11:20p   11.3   11.3   11.3    67    5.4   4.8   SSE   0.80  16.1   SSE   11.3   10.9   10.8  1021.2  0.00   0.0   0.049   0.000   19.5    47    7.9   18.6   8.81 1.2036    29.4   216    2     97.3   10 
20/10/17 11:30p   11.3   11.3   11.3    67    5.4   1.6    SE   0.27   9.7    SE   11.3   10.9   10.9  1021.3  0.00   0.0   0.049   0.000   19.4    47    7.8   18.5   8.81 1.2040    29.4   215    2     96.8   10 
20/10/17 11:40p   11.3   11.3   11.3    68    5.6   0.0    SE   0.00   9.7    SE   11.3   10.9   10.9  1021.3  0.00   0.0   0.049   0.000   19.4    47    7.8   18.5   8.81 1.2040    29.4   217    2     97.7   10 
20/10/17 11:50p   11.3   11.3   11.3    68    5.6   0.0   ---   0.00   0.0   ---   11.3   10.9   10.9  1021.3  0.00   0.0   0.049   0.000   19.3    47    7.7   18.4   8.81 1.2045    29.4   214    2     96.4   10 
21/10/17 12:00a   11.2   11.3   11.2    68    5.5   0.0    SE   0.00   3.2    SE   11.2   10.8   10.8  1021.3  0.00   0.0   0.050   0.000   19.3    47    7.7   18.3   8.82 1.2048    29.4   214    2     96.4   10 
21/10/17 12:10a   11.1   11.2   11.1    68    5.4   0.0    SE   0.00   3.2    SE   11.1   10.7   10.7  1021.3  0.00   0.0   0.050   0.000   19.3    46    7.4   18.2   8.65 1.2050    29.4   216    2     97.3   10 
21/10/17 12:20a   11.2   11.2   11.1    71    6.1   0.0   ---   0.00   0.0   ---   11.2   10.8   10.8  1021.3  0.00   0.0   0.050   0.000   19.3    46    7.4   18.2   8.65 1.2050    29.4   218    2     98.2   10 
21/10/17 12:30a   11.0   11.2   11.0    73    6.3   0.0   ---   0.00   0.0   ---   11.0   10.7   10.7  1021.2  0.00   0.0   0.051   0.000   19.2    46    7.3   18.1   8.65 1.2055    29.4   213    2     95.9   10 
21/10/17 12:40a   10.8   11.0   10.8    73    6.1   0.0   ---   0.00   0.0   ---   10.8   10.6   10.6  1021.2  0.00   0.0   0.052   0.000   19.2    46    7.3   18.1   8.65 1.2055    29.4   222    2    100.0   10 
21/10/17 12:50a   10.7   10.8   10.7    74    6.2   0.0   ---   0.00   0.0   ---   10.7   10.4   10.4  1021.3  0.00   0.0   0.053   0.000   19.1    47    7.5   18.1   8.82 1.2059    29.4   218    2     98.2   10 
21/10/17  1:00a   10.6   10.7   10.6    74    6.2   0.0   ---   0.00   0.0   ---   10.6   10.4   10.4  1021.1  0.00   0.0   0.054   0.000   19.1    47    7.5   18.1   8.82 1.2057    29.4   218    2     98.2   10 
21/10/17  1:10a   10.5   10.6   10.5    74    6.1   0.0   ---   0.00   0.0   ---   10.5   10.3   10.3  1021.1  0.00   0.0   0.054   0.000   19.0    47    7.4   17.9   8.83 1.2060    29.4   214    2     96.4   10 
21/10/17  1:20a   10.3   10.5   10.3    66    4.3   0.0    SE   0.00   8.0    SE   10.3   10.0   10.0  1020.9  0.00   0.0   0.056   0.000   19.0    47    7.4   17.9   8.83 1.2057    29.4   217    2     97.7   10 
21/10/17  1:30a   10.2   10.3   10.2    63    3.4   4.8     S   0.80  12.9     S   10.0    9.8    9.6  1021.1  0.00   0.0   0.057   0.000   18.9    46    7.0   17.8   8.65 1.2067    29.4   219    2     98.6   10 
21/10/17  1:40a   10.0   10.1   10.0    63    3.3   1.6     S   0.27   9.7     S   10.0    9.6    9.6  1021.1  0.00   0.0   0.058   0.000   18.9    46    7.0   17.8   8.65 1.2067    29.4   216    2     97.3   10 
21/10/17  1:50a    9.9   10.0    9.9    61    2.8   3.2   SSE   0.54   9.7     S    9.9    9.5    9.5  1020.9  0.00   0.0   0.058   0.000   18.8    46    7.0   17.7   8.65 1.2067    29.4   214    2     96.4   10 
21/10/17  2:00a    9.8    9.9    9.8    61    2.6   3.2   SSE   0.54  11.3   SSE    9.8    9.3    9.3  1020.7  0.00   0.0   0.059   0.000   18.7    46    6.9   17.6   8.65 1.2071    29.4   218    2     98.2   10 
21/10/17  2:10a    9.6    9.8    9.6    62    2.6   3.2   SSE   0.54  11.3   SSE    9.6    9.2    9.2  1020.7  0.00   0.0   0.061   0.000   18.6    46    6.8   17.4   8.65 1.2076    29.4   219    2     98.6   10 
21/10/17  2:20a    9.1    9.6    9.1    62    2.2   4.8   SSE   0.80  16.1   SSE    8.8    8.7    8.4  1021.0  0.00   0.0   0.064   0.000   18.6    46    6.7   17.4   8.65 1.2083    29.4   222    2    100.0   10 
21/10/17  2:30a    8.8    9.1    8.8    64    2.3   3.2   SSE   0.54  16.1   SSE    8.8    8.4    8.4  1021.0  0.00   0.0   0.066   0.000   18.4    45    6.3   17.2   8.55 1.2091    29.4   216    2     97.3   10 
21/10/17  2:40a    8.4    8.8    8.4    66    2.5   1.6   SSE   0.27   9.7   SSE    8.4    8.1    8.1  1021.0  0.00   0.0   0.069   0.000   18.3    45    6.2   17.1   8.55 1.2096    29.4   220    2     99.1   10 
21/10/17  2:50a    8.3    8.4    8.3    66    2.3   1.6   SSE   0.27   9.7   SSE    8.3    7.9    7.9  1020.9  0.00   0.0   0.070   0.000   18.3    45    6.1   17.1   8.55 1.2098    29.4   151    2     68.0   10 
21/10/17  3:00a    8.1    8.3    8.1    67    2.3   0.0   ---   0.00   0.0   ---    8.1    7.8    7.8  1020.7  0.00   0.0   0.071   0.000   18.2    45    6.0   16.9   8.56 1.2100    29.4    63    2     28.4   10 
21/10/17  3:10a    7.9    8.1    7.9    67    2.2   0.0   SSE   0.00  12.9   SSE    7.9    7.6    7.6  1020.7  0.00   0.0   0.072   0.000   18.0    45    5.9   16.8   8.56 1.2109    29.4   214    2     96.4   10 
21/10/17  3:20a    7.8    7.9    7.8    68    2.3   0.0   SSE   0.00   4.8   SSE    7.8    7.5    7.5  1020.8  0.00   0.0   0.073   0.000   18.0    45    5.9   16.8   8.56 1.2110    29.4   217    2     97.7   10 
21/10/17  3:30a    7.7    7.8    7.7    69    2.3   0.0   ---   0.00   0.0   ---    7.7    7.4    7.4  1020.8  0.00   0.0   0.074   0.000   17.9    45    5.8   16.7   8.57 1.2114    29.4   219    2     98.6   10 
21/10/17  3:40a    7.5    7.7    7.5    70    2.4   0.0   ---   0.00   0.0   ---    7.5    7.2    7.2  1020.8  0.00   0.0   0.075   0.000   17.9    45    5.8   16.7   8.57 1.2114    29.4   216    2     97.3   10 
21/10/17  3:50a    7.2    7.4    7.2    71    2.3   0.0   ---   0.00   0.0   ---    7.2    6.9    6.9  1020.8  0.00   0.0   0.077   0.000   17.8    45    5.7   16.6   8.57 1.2117    29.4   220    2     99.1   10 
21/10/17  4:00a    7.0    7.2    7.0    72    2.3   0.0   ---   0.00   0.0   ---    7.0    6.7    6.7  1020.6  0.00   0.0   0.079   0.000   17.7    45    5.6   16.5   8.57 1.2120    29.4   220    2     99.1   10 
21/10/17  4:10a    6.8    7.0    6.8    73    2.3   0.0   ---   0.00   0.0   ---    6.8    6.6    6.6  1020.6  0.00   0.0   2.046   0.000   17.6    45    5.5   16.4   8.58 1.2125    29.4   218    2      3.8  255 
21/10/17  4:20a    6.4    6.8    6.4    73    2.0   0.0   ---   0.00   0.0   ---    6.4    6.2    6.2  1020.5  0.00   0.0   0.083   0.000   17.6    45    5.5   16.3   8.58 1.2128    29.4   216    2     97.3   10 
21/10/17  4:30a    6.3    6.4    6.3    74    2.0   0.0   ---   0.00   0.0   ---    6.3    6.1    6.1  1020.7  0.00   0.0   0.084   0.000   17.4    45    5.4   16.2   8.58 1.2135    29.4   217    2     97.7   10 
21/10/17  4:40a    6.1    6.2    6.1    74    1.8   0.0   ---   0.00   0.0   ---    6.1    5.9    5.9  1020.7  0.00   0.0   0.085   0.000   17.4    45    5.3   16.1   8.58 1.2137    29.4   215    2     96.8   10 
21/10/17  4:50a    5.9    6.1    5.9    75    1.8   0.0   ---   0.00   0.0   ---    5.9    5.7    5.7  1020.7  0.00   0.0   0.086   0.000   17.3    45    5.2   16.0   8.59 1.2143    29.4   214    2     96.4   10 
21/10/17  5:00a    5.7    5.9    5.7    76    1.8   0.0   ---   0.00   0.0   ---    5.7    5.5    5.5  1020.7  0.00   0.0   0.088   0.000   17.2    45    5.2   15.9   8.59 1.2146    29.4   214    2     96.4   10 
21/10/17  5:10a    5.6    5.7    5.6    77    1.8   0.0   ---   0.00   0.0   ---    5.6    5.3    5.3  1020.7  0.00   0.0   0.089   0.000   17.0    45    5.0   15.7   8.60 1.2156    29.4   220    2     99.1   10 
21/10/17  5:20a    5.4    5.5    5.4    79    2.0   0.0   ---   0.00   0.0   ---    5.4    5.2    5.2  1021.0  0.00   0.0   0.090   0.000   16.9    45    4.9   15.7   8.60 1.2163    29.4   216    2     97.3   10 
21/10/17  5:30a    5.3    5.4    5.3    79    2.0   0.0   ---   0.00   0.0   ---    5.3    5.2    5.2  1020.9  0.00   0.0   0.090   0.000   16.9    45    4.9   15.7   8.60 1.2161    29.4   215    2     96.8   10 
21/10/17  5:40a    5.2    5.3    5.2    80    2.1   0.0   ---   0.00   0.0   ---    5.2    5.1    5.1  1020.9  0.00   0.0   0.091   0.000   16.8    45    4.8   15.6   8.60 1.2167    29.4   217    2     97.7   10 
21/10/17  5:50a    5.0    5.2    5.0    81    2.0   0.0   ---   0.00   0.0   ---    5.0    4.8    4.8  1020.9  0.00   0.0   0.093   0.000   16.8    45    4.8   15.5   8.61 1.2170    29.4   216    2     97.3   10 
21/10/17  6:00a    4.8    5.0    4.8    82    2.0   0.0   ---   0.00   0.0   ---    4.8    4.6    4.6  1020.9  0.00   0.0   0.094   0.000   16.7    45    4.7   15.4   8.61 1.2175    29.4   217    2     97.7   10 
21/10/17  6:10a    4.6    4.8    4.6    82    1.8   0.0   ---   0.00   0.0   ---    4.6    4.4    4.4  1020.9  0.00   0.0   0.095   0.000   16.6    45    4.6   15.3   8.61 1.2178    29.4   221    2     99.5   10 
21/10/17  6:20a    4.4    4.6    4.4    82    1.6   0.0   ---   0.00   0.0   ---    4.4    4.3    4.3  1021.1  0.00   0.0   0.096   0.000   16.6    45    4.6   15.3   8.61 1.2180    29.4   216    2     97.3   10 
21/10/17  6:30a    4.3    4.4    4.3    83    1.6   0.0   ---   0.00   0.0   ---    4.3    4.2    4.2  1021.1  0.00   0.0   0.098   0.000   16.4    45    4.4   15.1   8.62 1.2191    29.4   217    2     97.7   10 
21/10/17  6:40a    4.3    4.3    4.3    83    1.6   0.0   ---   0.00   0.0   ---    4.3    4.2    4.2  1021.1  0.00   0.0   0.098   0.000   16.4    45    4.4   15.1   8.62 1.2191    29.4   216    2     97.3   10 
21/10/17  6:50a    4.4    4.4    4.3    85    2.1   0.0   ---   0.00   0.0   ---    4.4    4.3    4.3  1021.2  0.00   0.0   0.097   0.000   16.3    45    4.4   15.1   8.62 1.2195    29.4   219    2     98.6   10 
21/10/17  7:00a    4.7    4.7    4.4    85    2.4   0.0   ---   0.00   0.0   ---    4.7    4.6    4.6  1021.2  0.00   0.0   0.095   0.000   16.3    45    4.4   15.1   8.62 1.2195    29.4   216    2     97.3   10 
21/10/17  7:10a    5.1    5.1    4.7    85    2.8   0.0   ---   0.00   0.0   ---    5.1    5.0    5.0  1021.2  0.00   0.0   0.092   0.000   16.3    45    4.4   15.1   8.62 1.2195    29.4   215    2     96.8   10 
21/10/17  7:20a    5.7    5.7    5.1    84    3.2   0.0   ---   0.00   0.0   ---    5.7    5.6    5.6  1021.2  0.00   0.0   0.088   0.000   16.3    44    4.0   15.0   8.49 1.2197    29.4   217    2     97.7   10 
21/10/17  7:30a    6.2    6.2    5.7    83    3.5   0.0   ---   0.00   0.0   ---    6.2    6.1    6.1  1021.2  0.00   0.0   0.084   0.000   16.3    44    4.0   15.0   8.49 1.2197    29.4   218    2     98.2   10 
21/10/17  7:40a    6.8    6.8    6.2    80    3.6   0.0     S   0.00  12.9     S    6.8    6.7    6.7  1021.2  0.00   0.0   0.080   0.000   16.3    44    4.0   15.0   8.49 1.2197    29.4   215    2     96.8   10 
21/10/17  7:50a    7.3    7.3    6.8    77    3.6   1.6     S   0.27  12.9     S    7.3    7.2    7.2  1021.2  0.00   0.0   0.076   0.000   16.3    44    4.0   15.0   8.49 1.2197    29.4   218    2     98.2   10 
21/10/17  8:00a    7.8    7.8    7.3    74    3.5   3.2     S   0.54  12.9     S    7.8    7.6    7.6  1020.8  0.00   0.0   0.073   0.000   16.3    44    4.0   15.0   8.49 1.2192    29.4   217    2     97.7   10 
21/10/17  8:10a    8.1    8.1    7.8    71    3.2   4.8   SSE   0.80  12.9   SSE    7.7    7.8    7.4  1020.8  0.00   0.0   0.071   0.000   16.4    43    3.8   15.0   8.32 1.2192    29.4   178    2     80.2   10 
21/10/17  8:20a    8.6    8.6    8.1    69    3.2   4.8   SSE   0.80  11.3   SSE    8.2    8.3    7.9  1020.7  0.00   0.0   0.068   0.000   16.5    43    3.9   15.1   8.32 1.2186    29.4    84    2     37.8   10 
21/10/17  8:30a    8.9    8.9    8.6    67    3.1   0.0   ---   0.00   0.0   ---    8.9    8.6    8.6  1020.6  0.00   0.0   0.065   0.000   16.5    43    3.9   15.1   8.32 1.2184    29.4     0    2      0.0   10 
21/10/17  8:40a    9.2    9.2    8.9    67    3.4   0.0   ---   0.00   0.0   ---    9.2    8.9    8.9  1020.6  0.00   0.0   0.063   0.000   16.4    43    3.8   15.0   8.32 1.2189    29.4     0    2      0.0   10 
21/10/17  8:50a    9.4    9.4    9.1    67    3.6   0.0   ---   0.00   0.0   ---    9.4    9.1    9.1  1020.5  0.00   0.0   0.062   0.000   16.4    43    3.8   15.0   8.32 1.2188    29.4     0    2      0.0   10 
21/10/17  9:00a    9.7    9.7    9.4    62    2.8   0.0   ---   0.00   0.0   ---    9.7    9.3    9.3  1020.3  0.00   0.0   0.060   0.000   16.5    43    3.9   15.1   8.32 1.2180    29.4     0    2      0.0   10 
21/10/17  9:10a    9.8    9.8    9.7    60    2.4   0.0   ---   0.00   0.0   ---    9.8    9.3    9.3  1020.3  0.00   0.0   0.059   0.000   16.7    43    4.0   15.3   8.31 1.2172    29.4     0    2      0.0   10 
21/10/17  9:20a   10.1   10.1    9.8    61    2.9   0.0   ---   0.00   0.0   ---   10.1    9.7    9.7  1020.2  0.00   0.0   0.057   0.000   16.8    43    4.1   15.4   8.31 1.2166    29.4     0    2      0.0   10 
21/10/17  9:30a   10.6   10.6   10.1    63    3.9   0.0   ---   0.00   0.0   ---   10.6   10.2   10.2  1020.2  0.00   0.0   0.054   0.000   16.8    43    4.2   15.4   8.30 1.2163    29.4     0    2      0.0   10 
21/10/17  9:40a   10.8   10.8   10.5    61    3.6   0.0   ---   0.00   0.0   ---   10.8   10.3   10.3  1020.2  0.00   0.0   0.052   0.000   16.9    43    4.3   15.6   8.30 1.2158    29.4     0    2      0.0   10 
21/10/17  9:50a   11.3   11.3   10.8    59    3.5   0.0   ---   0.00   0.0   ---   11.3   10.7   10.7  1020.1  0.00   0.0   0.049   0.000   17.1    42    4.1   15.7   8.15 1.2151    29.4     0    2      0.0   10 
21/10/17 10:00a   11.8   11.8   11.3    56    3.3   0.0   SSE   0.00   3.2   SSE   11.8   11.1   11.1  1020.0  0.00   0.0   0.046   0.000   17.4    42    4.3   16.0   8.15 1.2137    29.4   218    2     98.2   10 
21/10/17 10:10a   12.0   12.1   11.8    53    2.7   0.0   SSE   0.00   4.8   SSE   12.0   11.2   11.2  1020.0  0.00   0.0   0.044   0.000   17.6    42    4.5   16.2   8.15 1.2126    29.4   217    2     97.7   10 
21/10/17 10:20a   12.2   12.2   12.0    55    3.4   0.0   SSE   0.00   4.8   SSE   12.2   11.4   11.4  1019.8  0.00   0.0   0.042   0.000   17.7    41    4.3   16.3   7.97 1.2121    29.4   212    2     95.5   10 
21/10/17 10:30a   12.9   12.9   12.2    52    3.3   0.0   ENE   0.00   4.8     E   12.9   11.9   11.9  1019.8  0.00   0.0   0.038   0.000   17.8    42    4.7   16.4   8.15 1.2113    29.4   219    2     98.6   10 
21/10/17 10:40a   13.2   13.2   12.8    50    3.0   0.0   ENE   0.00   1.6   ENE   13.2   12.1   12.1  1019.8  0.00   0.0   0.036   0.000   18.0    41    4.5   16.6   7.96 1.2107    29.4   218    2     98.2   10 
21/10/17 10:50a   13.1   13.2   13.1    49    2.6   1.6    SE   0.27   9.7    SE   13.1   12.0   12.0  1019.4  0.00   0.0   0.037   0.000   18.1    41    4.6   16.7   7.96 1.2097    29.4   211    2     95.0   10 
21/10/17 11:00a   13.2   13.2   13.1    48    2.4   0.0     S   0.00   3.2     S   13.2   12.1   12.1  1019.4  0.00   0.0   0.035   0.000   18.3    41    4.8   16.9   7.95 1.2089    29.4   218    2     98.2   10 
21/10/17 11:10a   13.7   13.7   13.2    51    3.8   0.0     S   0.00   8.0     S   13.7   12.7   12.7  1019.4  0.00   0.0   0.032   0.000   18.3    41    4.8   16.9   7.95 1.2086    29.4   213    2     95.9   10 
21/10/17 11:20a   14.1   14.1   13.7    50    3.8   0.0     S   0.00   3.2     S   14.1   13.0   13.0  1019.2  0.00   0.0   0.030   0.000   18.4    41    4.9   17.1   7.95 1.2079    29.4   214    2     96.4   10 
21/10/17 11:30a   14.5   14.5   14.1    49    3.9   0.0   SSE   0.00   1.6   SSE   14.5   13.3   13.3  1018.9  0.00   0.0   0.027   0.000   18.6    40    4.7   17.1   7.84 1.2072    29.4   216    2     97.3   10 
21/10/17 11:40a   14.3   14.5   14.2    49    3.7   0.0   SSE   0.00   1.6   SSE   14.3   13.2   13.2  1018.9  0.00   0.0   0.028   0.000   18.6    41    5.1   17.2   7.95 1.2067    29.4   216    2     97.3   10 
21/10/17 11:50a   14.6   14.6   14.3    47    3.4   0.0   SSE   0.00   4.8   SSE   14.6   13.3   13.3  1018.7  0.00   0.0   0.026   0.000   18.7    40    4.8   17.3   7.84 1.2062    29.4   215    2     96.8   10 
21/10/17 12:00p   15.5   15.5   14.6    46    3.9   0.0    NE   0.00   4.8    NE   15.5   14.3   14.3  1018.3  0.00   0.0   0.020   0.000   18.8    40    4.9   17.4   7.83 1.2052    29.4   218    2     98.2   10 
21/10/17 12:10p   16.0   16.0   15.5    45    4.1   0.0    NE   0.00   1.6    NE   16.0   14.7   14.7  1018.3  0.00   0.0   0.016   0.000   18.9    40    5.0   17.4   7.83 1.2049    29.4   214    2     96.4   10 
21/10/17 12:20p   16.7   16.7   16.0    47    5.3   0.0   NNE   0.00   9.7   NNE   16.7   15.6   15.6  1018.0  0.00   0.0   0.011   0.000   19.0    40    5.1   17.6   7.83 1.2040    29.4   212    2     95.5   10 
21/10/17 12:30p   16.7   16.8   16.7    47    5.3   0.0   NNE   0.00   4.8   NNE   16.7   15.6   15.6  1017.7  0.00   0.0   0.011   0.000   19.2    40    5.2   17.8   7.82 1.2029    29.4   221    2     99.5   10 
21/10/17 12:40p   16.9   16.9   16.6    44    4.5   0.0   NNE   0.00   8.0   NNE   16.9   15.6   15.6  1017.7  0.00   0.0   0.010   0.000   19.3    40    5.4   17.9   7.81 1.2021    29.4   214    2     96.4   10 
21/10/17 12:50p   17.2   17.2   16.9    50    6.7   0.0   ---   0.00   0.0   ---   17.2   16.2   16.2  1017.4  0.00   0.0   0.008   0.000   19.5    40    5.5   18.1   7.81 1.2009    29.4   216    2     97.3   10 
21/10/17  1:00p   17.5   17.5   17.1    49    6.7   0.0   NNE   0.00   3.2   NNE   17.5   16.4   16.4  1017.2  0.00   0.0   0.006   0.000   19.5    40    5.5   18.1   7.81 1.2007    29.4   215    2     96.8   10 
21/10/17  1:10p   17.7   17.8   17.5    46    5.9   0.0    NE   0.00   8.0    NE   17.7   16.5   16.5  1017.2  0.00   0.0   0.005   0.000   19.8    40    5.8   18.4   7.80 1.1994    29.4   218    2     98.2   10 
21/10/17  1:20p   17.6   17.7   17.6    45    5.5   1.6   NNE   0.27  11.3   NNE   17.6   16.3   16.3  1017.0  0.00   0.0   0.005   0.000   20.0    39    5.6   18.6   7.69 1.1983    29.4   215    2     96.8   10 
21/10/17  1:30p   17.2   17.6   17.2    41    3.8   0.0    NW   0.00   9.7    NW   17.2   15.8   15.8  1016.9  0.00   0.0   0.008   0.000   20.1    39    5.7   18.7   7.69 1.1980    29.4   217    2     97.7   10 
21/10/17  1:40p   17.4   17.4   17.2    50    6.9   0.0   ---   0.00   0.0   ---   17.4   16.3   16.3  1016.9  0.00   0.0   0.007   0.000   20.3    39    5.9   18.9   7.68 1.1970    29.4    72    2     32.4   10 
21/10/17  1:50p   18.0   18.0   17.4    46    6.2   0.0   NNW   0.00   3.2   NNW   18.0   16.8   16.8  1016.6  0.00   0.0   0.002   0.000   20.3    39    5.9   18.9   7.68 1.1963    29.4   173    2     77.9   10 
21/10/17  2:00p   18.4   18.4   18.0    43    5.6   0.0   WNW   0.00   1.6   WNW   18.4   17.1   17.1  1016.3  0.00   0.0   0.000   0.000   20.6    39    6.2   19.2   7.67 1.1946    29.4   217    2     97.7   10 
21/10/17  2:10p   19.0   19.0   18.4    44    6.5   0.0   WNW   0.00   1.6   WNW   19.0   17.8   17.8  1016.3  0.00   0.0   0.000   0.005   20.7    38    5.9   19.2   7.55 1.1944    29.4   215    2     96.8   10 
21/10/17  2:20p   19.2   19.4   19.0    39    4.9   0.0   WNW   0.00   1.6   WNW   19.2   17.7   17.7  1015.9  0.00   0.0   0.000   0.006   20.9    38    6.1   19.4   7.55 1.1929    29.4   216    2     97.3   10 
21/10/17  2:30p   19.2   19.3   19.1    45    6.9   0.0    NW   0.00   8.0     N   19.2   18.1   18.1  1015.6  0.00   0.0   0.000   0.006   21.0    38    6.1   19.4   7.55 1.1922    29.4   219    2     98.6   10 
21/10/17  2:40p   18.9   19.3   18.8    52    8.9   0.0     N   0.00   1.6     N   18.9   18.2   18.2  1015.6  0.00   0.0   0.000   0.004   21.2    38    6.3   19.7   7.54 1.1912    29.4   215    2     96.8   10 
21/10/17  2:50p   19.4   19.4   18.9    49    8.4   0.0   NNE   0.00   9.7   NNE   19.4   18.6   18.6  1015.6  0.00   0.0   0.000   0.007   21.4    38    6.5   19.9   7.53 1.1904    29.4   213    2     95.9   10 
21/10/17  3:00p   19.4   19.4   19.4    43    6.5   0.0   NNE   0.00   8.0   NNE   19.4   18.3   18.3  1015.3  0.00   0.0   0.000   0.008   21.6    38    6.6   20.1   7.52 1.1893    29.4   216    2     97.3   10 
21/10/17  3:10p   19.4   19.4   19.4    49    8.4   0.0   NNE   0.00   4.8   NNE   19.4   18.6   18.6  1015.3  0.00   0.0   0.000   0.007   21.7    38    6.7   20.2   7.51 1.1887    29.4   217    2     97.7   10 
21/10/17  3:20p   19.0   19.4   19.0    45    6.8   0.0   NNE   0.00   4.8   NNE   19.0   17.8   17.8  1015.2  0.00   0.0   0.000   0.005   21.8    38    6.8   20.4   7.50 1.1881    29.4   217    2     97.7   10 
21/10/17  3:30p   19.1   19.1   19.0    45    6.9   0.0   NNE   0.00   3.2   NNE   19.1   18.0   18.0  1015.1  0.00   0.0   0.000   0.005   21.8    38    6.9   20.5   7.50 1.1877    29.4   218    2     98.2   10 
21/10/17  3:40p   19.0   19.1   19.0    47    7.4   0.0   NNE   0.00   4.8   NNE   19.0   17.9   17.9  1015.1  0.00   0.0   0.000   0.005   22.1    38    7.1   20.8   7.48 1.1866    29.4   217    2     97.7   10 
21/10/17  3:50p   19.3   19.3   19.0    49    8.3   0.0    NE   0.00   9.7    NE   19.3   18.4   18.4  1014.8  0.00   0.0   0.000   0.007   22.2    38    7.2   21.0   7.47 1.1857    29.4   218    2     98.2   10 
21/10/17  4:00p   19.2   19.3   19.2    48    7.9   0.0     N   0.00   4.8     N   19.2   18.2   18.2  1014.5  0.00   0.0   0.000   0.006   22.3    38    7.3   21.2   7.46 1.1846    29.4   215    2     96.8   10 
21/10/17  4:10p   18.9   19.3   18.9    45    6.7   0.0   NNW   0.00   4.8   NNW   18.9   17.8   17.8  1014.5  0.00   0.0   0.000   0.004   22.4    38    7.4   21.4   7.45 1.1840    29.4   214    2     96.4   10 
21/10/17  4:20p   18.8   18.9   18.8    49    7.9   0.0   NNW   0.00   8.0   NNW   18.8   17.9   17.9  1014.6  0.00   0.0   0.000   0.003   22.7    38    7.7   21.8   7.43 1.1829    29.4   217    2     97.7   10 
21/10/17  4:30p   18.7   18.9   18.7    49    7.8   0.0   NNE   0.00   8.0     N   18.7   17.8   17.8  1014.3  0.00   0.0   0.000   0.003   24.7    36    8.6   24.1   7.02 1.1741    29.4   217    2     97.7   10 
21/10/17  4:40p   18.4   18.7   18.4    51    8.1   0.0   NNE   0.00   3.2   NNE   18.4   17.5   17.5  1014.3  0.00   0.0   0.000   0.000   24.8    34    7.9   24.2   6.72 1.1740    29.4   214    2     96.4   10 
21/10/17  4:50p   17.9   18.3   17.9    53    8.2   0.0   ---   0.00   0.0   ---   17.9   17.1   17.1  1014.5  0.00   0.0   0.003   0.000   24.9    34    8.0   24.3   6.71 1.1737    29.4   220    2     99.1   10 
21/10/17  5:00p   17.8   17.9   17.8    52    7.8   0.0   ---   0.00   0.0   ---   17.8   16.9   16.9  1014.5  0.00   0.0   0.004   0.000   25.2    33    7.7   24.5   6.55 1.1730    29.4   220    2     99.1   10 
21/10/17  5:10p   17.3   17.7   17.3    53    7.7   0.0   NNE   0.00   8.0   NNE   17.3   16.4   16.4  1014.5  0.00   0.0   0.007   0.000   25.4    33    8.0   24.7   6.55 1.1718    29.4   220    2     99.1   10 
21/10/17  5:20p   17.2   17.3   17.2    55    8.1   0.0   NNE   0.00   4.8   NNE   17.2   16.4   16.4  1014.5  0.00   0.0   0.008   0.000   25.6    32    7.7   24.8   6.39 1.1713    29.4   215    2     96.8   10 
21/10/17  5:30p   17.2   17.2   17.1    55    8.1   0.0   NNE   0.00   4.8   NNE   17.2   16.4   16.4  1014.3  0.00   0.0   0.008   0.000   25.7    32    7.8   24.9   6.38 1.1706    29.4   220    2     99.1   10 
21/10/17  5:40p   17.1   17.1   17.1    56    8.2   0.0   NNE   0.00   3.2   NNE   17.1   16.3   16.3  1014.3  0.00   0.0   0.009   0.000   25.9    32    8.0   25.1   6.38 1.1695    29.4   217    2     97.7   10 
21/10/17  5:50p   17.1   17.1   17.1    57    8.5   0.0   NNE   0.00   1.6   NNE   17.1   16.4   16.4  1014.0  0.00   0.0   0.008   0.000   25.6    32    7.7   24.8   6.39 1.1708    29.4   215    2     96.8   10 
21/10/17  6:00p   17.1   17.1   17.1    57    8.5   0.0   ---   0.00   0.0   ---   17.1   16.4   16.4  1013.7  0.00   0.0   0.008   0.000   24.9    33    7.6   24.3   6.55 1.1731    29.4   218    2     98.2   10 
21/10/17  6:10p   17.1   17.1   17.1    56    8.3   0.0   ---   0.00   0.0   ---   17.1   16.3   16.3  1013.7  0.00   0.0   0.008   0.000   24.3    34    7.4   23.6   6.74 1.1759    29.4   214    2     96.4   10 
21/10/17  6:20p   17.1   17.1   17.1    56    8.2   0.0   ---   0.00   0.0   ---   17.1   16.3   16.3  1013.7  0.00   0.0   0.009   0.000   23.8    34    7.0   23.1   6.75 1.1781    29.4   215    2     96.8   10 
21/10/17  6:30p   16.9   17.1   16.9    56    8.1   0.0   ---   0.00   0.0   ---   16.9   16.2   16.2  1013.6  0.00   0.0   0.010   0.000   23.5    35    7.1   22.8   6.96 1.1791    29.4   212    2     95.5   10 
21/10/17  6:40p   16.6   16.9   16.6    56    7.8   0.0   ---   0.00   0.0   ---   16.6   15.8   15.8  1013.6  0.00   0.0   0.012   0.000   23.2    36    7.3   22.4   7.10 1.1803    29.4   219    2     98.6   10 
21/10/17  6:50p   16.3   16.6   16.3    57    7.8   0.0   ---   0.00   0.0   ---   16.3   15.6   15.6  1013.7  0.00   0.0   0.014   0.000   23.0    36    7.1   22.2   7.11 1.1812    29.4   220    2     99.1   10 
21/10/17  7:00p   16.0   16.3   16.0    59    8.0   0.0   ---   0.00   0.0   ---   16.0   15.3   15.3  1013.8  0.00   0.0   0.016   0.000   22.8    36    7.0   21.9   7.13 1.1821    29.4   215    2     96.8   10 
21/10/17  7:10p   15.6   16.0   15.6    59    7.6   0.0   ---   0.00   0.0   ---   15.6   14.8   14.8  1013.8  0.00   0.0   0.019   0.000   22.7    37    7.3   21.8   7.29 1.1823    29.4   218    2     98.2   10 
21/10/17  7:20p   15.2   15.6   15.2    60    7.5   0.0   ---   0.00   0.0   ---   15.2   14.5   14.5  1013.4  0.00   0.0   0.022   0.000   22.5    37    7.1   21.4   7.30 1.1829    29.4   216    2     97.3   10 
21/10/17  7:30p   14.8   15.2   14.8    62    7.6   0.0   ---   0.00   0.0   ---   14.8   14.2   14.2  1013.7  0.00   0.0   0.024   0.000   22.4    37    7.0   21.3   7.30 1.1834    29.4   215    2     96.8   10 
21/10/17  7:40p   14.5   14.8   14.5    63    7.5   0.0   ---   0.00   0.0   ---   14.5   13.9   13.9  1013.7  0.00   0.0   0.027   0.000   22.3    37    6.9   21.2   7.31 1.1839    29.4   220    2     99.1   10 
21/10/17  7:50p   14.2   14.5   14.2    64    7.5   0.0   ---   0.00   0.0   ---   14.2   13.6   13.6  1013.7  0.00   0.0   0.029   0.000   22.2    38    7.2   21.0   7.47 1.1845    29.4   218    2     98.2   10 
21/10/17  8:00p   14.1   14.2   14.1    65    7.6   0.0   ---   0.00   0.0   ---   14.1   13.5   13.5  1013.9  0.00   0.0   0.030   0.000   22.1    38    7.1   20.8   7.48 1.1853    29.4   218    2     98.2   10 
21/10/17  8:10p   13.8   14.1   13.8    66    7.5   0.0   ---   0.00   0.0   ---   13.8   13.2   13.2  1013.9  0.00   0.0   0.032   0.000   21.9    38    7.0   20.7   7.49 1.1858    29.4   216    2     97.3   10 
21/10/17  8:20p   13.7   13.8   13.7    66    7.4   0.0   ---   0.00   0.0   ---   13.7   13.1   13.1  1013.6  0.00   0.0   0.032   0.000   21.8    38    6.9   20.5   7.50 1.1859    29.4   216    2     97.3   10 
21/10/17  8:30p   13.6   13.7   13.6    67    7.5   0.0   ---   0.00   0.0   ---   13.6   13.1   13.1  1013.7  0.00   0.0   0.033   0.000   21.8    38    6.9   20.5   7.50 1.1860    29.4   220    2     99.1   10 
21/10/17  8:40p   13.2   13.6   13.2    67    7.2   0.0   ---   0.00   0.0   ---   13.2   12.7   12.7  1013.7  0.00   0.0   0.035   0.000   21.7    38    6.7   20.2   7.51 1.1868    29.4   216    2     97.3   10 
21/10/17  8:50p   13.1   13.2   13.1    68    7.3   0.0   ---   0.00   0.0   ---   13.1   12.6   12.6  1013.7  0.00   0.0   0.037   0.000   21.6    38    6.6   20.1   7.52 1.1873    29.4   217    2     97.7   10 
21/10/17  9:00p   13.0   13.1   13.0    68    7.2   0.0   ---   0.00   0.0   ---   13.0   12.5   12.5  1013.9  0.00   0.0   0.037   0.000   21.5    38    6.6   20.0   7.52 1.1878    29.4   218    2     98.2   10